Station LTBV3 - 9751401 - Lime Tree Bay, St. Croix, VI Image indicating link to RSS feed of recent meteorological observations for station LTBV3


Conditions at LTBV3 as of
(10:18 am AST)
1418 GMT on 06/25/2024:
     

Click on the graph icon in the table below to see a time series plot of the last five days of that observation.

5-day plot - Wind Direction Wind Direction (WDIR): E ( 100 deg true )
5-day plot - Wind Speed Wind Speed (WSPD): 15.0 kts
5-day plot - Wind Gust Wind Gust (GST): 20.0 kts
5-day plot - Atmospheric Pressure Atmospheric Pressure (PRES):29.99 in
5-day plot - Air Temperature Air Temperature (ATMP): 86.9 °F
5-day plot - Water Temperature Water Temperature (WTMP): 87.1 °F
5-day plot - Wind Speed at 10 Meters Wind Speed at 10 meters (WSPD10M): 15.5 kts
5-day plot - Wind Speed at 20 Meters Wind Speed at 20 meters (WSPD20M): 17.5 kts
5-day plot -  Wind Speed, Wind Gust and Atmospheric Pressure Combined plot of Wind Speed, Gust, and Air Pressure
NOS Water Level Observation Network Water Level
Previous observations
TIME
(AST)
5-day plot - Wind Direction
WDIR
 
5-day plot - Wind Speed
WSPD
kts
5-day plot - Wind Gust
GST
kts
5-day plot - Wave Height
WVHT
ft
5-day plot - Dominant Wave Period
DPD
sec
5-day plot - Average Wave Period
APD
sec
5-day plot - Mean Wave Direction
MWD
 
5-day plot - Atmospheric Pressure
PRES
in
5-day plot - Pressure Tendency
PTDY
in
5-day plot - Air Temperature
ATMP
°F
5-day plot - Water Temperature
WTMP
°F
5-day plot - Dew Point
DEWP
°F
5-day plot - Salinity
SAL
psu
5-day plot - Visibility
VIS
nmi
5-day plot - Tide (above MLLW)
TIDE
ft
2024-06-25 10:12 amESE 15.9 21.0----29.99- 87.3 87.1----
2024-06-25 10:06 amESE 17.1 20.0----29.99- 87.1 86.9----
2024-06-25 10:00 amESE 18.1 22.0----29.99+0.03 87.3 86.9----
2024-06-25 09:54 am E 20.0 22.9----29.98- 86.5 86.9----
2024-06-25 09:48 amESE 18.1 22.9----29.99- 86.7 86.9----
2024-06-25 09:42 am E 18.1 22.9----29.99- 86.7 86.9----
2024-06-25 09:36 am E 15.9 21.0----29.99- 86.7 86.9----
2024-06-25 09:30 amESE 17.1 21.0----29.99- 86.7 86.9----
2024-06-25 09:24 amESE 15.9 22.0----29.98- 86.7 86.9----
2024-06-25 09:18 am E 18.1 21.0----29.98- 86.4 86.9----
2024-06-25 09:12 amESE 17.1 22.9----29.98- 86.5 87.1----
2024-06-25 09:06 am E 19.0 22.0----29.98- 86.4 87.1----
2024-06-25 09:00 am E 19.0 22.0----29.98- 86.4 87.1----
2024-06-25 08:54 amESE 18.1 22.0----29.98- 86.5 87.1----
2024-06-25 08:48 am E 19.0 24.1----29.97- 86.4 87.1----
2024-06-25 08:42 amESE 19.0 22.0----29.98- 86.4 87.1----
2024-06-25 08:36 amESE 18.1 22.9----29.97- 86.4 87.1----
2024-06-25 08:30 am E 18.1 24.1----29.97- 86.2 87.1----
2024-06-25 08:24 am E 17.1 24.1----29.97- 86.0 87.1----
2024-06-25 08:18 am E 21.0 25.1----29.97- 86.0 87.1----
2024-06-25 08:12 am E 21.0 24.1----29.97- 85.8 87.1----
2024-06-25 08:06 am E 18.1 25.1----29.97- 85.8 87.1----
2024-06-25 08:00 am E 19.0 22.9----29.97+0.02 85.6 87.1----
2024-06-25 07:54 am E 19.0 22.9----29.97- 85.8 87.1----
2024-06-25 07:48 am E 17.1 22.0------ 85.8 87.1----
2024-06-25 07:42 am E 19.0 22.0------ 85.8 87.1----
2024-06-25 07:36 am E 19.0 24.1------ 85.6 87.1----
2024-06-25 07:30 amESE 20.0 25.1----29.97- 85.8 87.1----
2024-06-25 07:24 am E 21.0 25.1----29.97- 85.8 87.1----
2024-06-25 07:18 am E 20.0 22.9----29.96- 85.6 87.1----
2024-06-25 07:12 amESE 17.1 21.0----29.96- 85.8 87.1----
2024-06-25 07:06 amESE 20.0 25.1----29.96- 85.8 87.1----
2024-06-25 07:00 am E 20.0 25.1----29.96+0.00 85.5 87.1----
2024-06-25 06:54 am E 19.0 24.1----29.96- 85.5 87.1----
2024-06-25 06:48 am E 18.1 22.9----29.96- 85.5 87.1----
2024-06-25 06:42 am E 18.1 22.0----29.96- 85.5 87.1----
2024-06-25 06:36 am E 15.9 21.0----29.96- 85.5 87.1----
2024-06-25 06:30 am E 18.1 22.9----29.96- 85.3 87.1----
2024-06-25 05:36 am E 15.9 21.0----29.94- 85.3 87.1----
2024-06-25 05:30 am E 12.0 21.0----29.95- 84.7 87.1----
2024-06-25 05:24 am E 11.1 15.9----29.94- 84.6 87.1----
2024-06-25 05:18 am E 8.0 18.1----29.94- 84.6 87.1----
2024-06-25 05:12 am E 7.0 14.0----29.94- 84.7 87.1----
2024-06-25 05:06 am E 12.0 18.1----29.95- 84.9 87.1----
2024-06-25 05:00 am E 8.0 13.0----29.95-0.02 84.4 87.1----
2024-06-25 04:54 am E 7.0 13.0----29.95- 84.4 87.1----
2024-06-25 04:48 am E 6.0 13.0----29.95- 84.4 87.1----
2024-06-25 04:42 amENE 6.0 12.0----29.95- 84.4 87.1----
2024-06-25 04:36 am E 7.0 12.0----29.95- 84.4 87.1----
2024-06-25 04:30 am E 6.0 8.9----29.96- 84.0 87.1----
2024-06-25 04:24 amENE 7.0 12.0----29.95- 84.0 87.1----
2024-06-25 04:18 amENE 8.0 11.1----29.95- 84.0 87.1----
2024-06-25 04:12 amENE 6.0 13.0----29.96- 84.0 87.1----
2024-06-25 04:06 amENE 8.9 12.0----29.95- 84.0 87.1----
2024-06-25 04:00 am E 8.0 12.0----29.95-0.04 84.2 87.3----
2024-06-25 03:54 amENE 8.0 9.9----29.95- 84.0 87.3----
2024-06-25 03:48 amENE 8.0 12.0----29.95- 84.0 87.3----
2024-06-25 03:42 amENE 6.0 14.0----29.95- 84.2 87.3----
2024-06-25 03:36 amENE 7.0 11.1----29.96- 84.0 87.3----
2024-06-25 03:30 am E 6.0 11.1----29.96- 84.0 87.3----
2024-06-25 03:24 am E 5.1 11.1----29.96- 84.2 87.3----
2024-06-25 03:18 amENE 7.0 11.1----29.96- 84.0 87.3----
2024-06-25 03:12 amENE 7.0 11.1----29.95- 84.0 87.3----
2024-06-25 03:06 amENE 7.0 14.0----29.95- 84.0 87.3----
2024-06-25 03:00 amENE 8.0 12.0----29.96-0.04 84.0 87.3----
2024-06-25 02:54 amENE 7.0 12.0----29.96- 84.0 87.3----
2024-06-25 02:48 amENE 8.9 11.1----29.96- 83.8 87.3----
2024-06-25 02:42 amENE 8.9 12.0----29.96- 84.0 87.3----
2024-06-25 02:36 amENE 8.0 12.0----29.96- 84.0 87.3----
2024-06-25 02:30 amENE 7.0 11.1----29.96- 84.0 87.3----
2024-06-25 02:24 amENE 7.0 9.9----29.96- 84.0 87.3----
2024-06-25 02:18 amENE 7.0 12.0----29.96- 84.2 87.3----
2024-06-25 02:12 am E 6.0 11.1----29.96- 84.2 87.3----
2024-06-25 02:06 am E 6.0 11.1----29.96- 84.2 87.3----
2024-06-25 02:00 am E 6.0 12.0----29.97-0.04 84.2 87.3----
2024-06-25 01:54 amENE 8.0 12.0----29.97- 84.2 87.3----
2024-06-25 01:48 amENE 7.0 9.9----29.97- 84.4 87.3----
2024-06-25 01:42 amENE 7.0 9.9----29.98- 84.4 87.4----
2024-06-25 01:36 amENE 5.1 9.9----29.98- 84.6 87.4----
2024-06-25 01:30 amENE 6.0 11.1----29.98- 84.6 87.4----
2024-06-25 01:24 am E 8.0 20.0----29.98- 85.3 87.4----
2024-06-25 01:18 am E 13.0 18.1----29.98- 85.3 87.4----
2024-06-25 01:12 am E 13.0 20.0----29.98- 85.3 87.4----
2024-06-25 01:06 am E 13.0 19.0----29.98- 85.3 87.4----
2024-06-25 01:00 am E 8.0 17.1----29.99-0.01 85.1 87.4----
2024-06-25 12:54 am E 9.9 18.1----29.99- 85.1 87.4----
2024-06-25 12:48 am E 15.0 21.0----29.99- 85.3 87.4----
2024-06-25 12:42 am E 17.1 20.0----29.99- 85.5 87.4----
2024-06-25 12:36 amESE 14.0 21.0----29.99- 85.8 87.4----
2024-06-25 12:30 am E 17.1 21.0----29.99- 85.6 87.4----
2024-06-25 12:24 am E 19.0 22.0----29.99- 85.8 87.4----
2024-06-25 12:18 am E 17.1 22.0----30.00- 85.8 87.4----
2024-06-25 12:12 am E 15.9 21.0----30.00- 85.8 87.4----
2024-06-25 12:06 am E 18.1 22.0----30.00- 85.6 87.6----
2024-06-25 12:00 am E 17.1 21.0----30.00+0.00 85.6 87.6----
2024-06-24 11:54 pm E 17.1 21.0----30.00- 85.8 87.6----
2024-06-24 11:48 pm E 18.1 22.0----30.01- 85.8 87.6----
2024-06-24 11:42 pm E 17.1 21.0----30.01- 85.6 87.6----
2024-06-24 11:36 pmESE 17.1 20.0----30.01- 85.8 87.6----
2024-06-24 11:30 pm E 17.1 21.0----30.01- 85.8 87.6----
2024-06-24 11:24 pm E 17.1 20.0----30.01- 85.8 87.6----
2024-06-24 11:18 pm E 15.9 21.0----30.01- 85.8 87.6----
2024-06-24 11:12 pm E 17.1 21.0----30.01- 85.8 87.6----
2024-06-24 11:06 pm E 15.0 21.0----30.01- 85.8 87.6----
2024-06-24 11:00 pm E 15.9 20.0----30.01+0.02 85.6 87.6----
2024-06-24 10:54 pm E 15.9 22.0----30.01- 85.8 87.6----
2024-06-24 10:48 pm E 19.0 22.0----30.01- 85.6 87.6----
2024-06-24 10:42 pmESE 15.0 22.0----30.01- 85.8 87.6----
2024-06-24 10:36 pm E 15.9 20.0----30.01- 85.6 87.6----
2024-06-24 10:30 pmESE 15.9 21.0----30.01- 85.8 87.6----
2024-06-24 10:24 pm E 17.1 20.0----30.00- 85.8 87.6----
2024-06-24 10:18 pmESE 17.1 22.0----30.00- 85.8 87.6----
2024-06-24 10:12 pmESE 15.9 22.0----30.00- 86.0 87.6----
2024-06-24 10:06 pm E 19.0 22.9----30.00- 85.8 87.6----
2024-06-24 10:00 pmESE 18.1 22.0----30.00+0.02 85.8 87.6----
2024-06-24 09:54 pmESE 15.9 22.0----30.00- 86.0 87.6----
2024-06-24 09:48 pm E 19.0 22.0----30.00- 86.0 87.6----
2024-06-24 09:42 pm E 17.1 20.0----30.00- 86.0 87.6----
2024-06-24 09:36 pm E 14.0 20.0----30.00- 86.0 87.6----
2024-06-24 09:30 pm E 15.0 19.0----30.00- 85.8 87.6----
2024-06-24 09:24 pm E 15.0 19.0----30.00- 86.0 87.6----
2024-06-24 09:18 pm E 13.0 18.1----30.00- 85.8 87.6----
2024-06-24 09:12 pm E 12.0 17.1----30.00- 85.8 87.6----
2024-06-24 09:06 pm E 12.0 18.1----30.00- 85.8 87.6----
2024-06-24 09:00 pm E 8.9 15.0----30.00+0.04 85.6 87.6----
2024-06-24 08:54 pm E 12.0 15.0----30.00- 85.8 87.6----
2024-06-24 08:48 pm E 9.9 14.0----29.99- 85.6 87.6----
2024-06-24 08:42 pm E 13.0 15.9----29.99- 85.8 87.6----
2024-06-24 08:36 pm E 8.0 17.1----29.99- 85.8 87.6----
2024-06-24 08:30 pm E 14.0 18.1----29.99- 85.8 87.6----
2024-06-24 08:24 pm E 12.0 15.9----29.99- 85.8 87.6----
2024-06-24 08:18 pm E 14.0 18.1----29.99- 86.0 87.8----
2024-06-24 08:12 pm E 15.9 18.1----29.99- 85.8 87.8----
2024-06-24 08:06 pm E 9.9 15.0----29.99- 85.3 87.8----
2024-06-24 08:00 pm E 8.9 15.0----29.99+0.05------
2024-06-24 07:54 pm E 8.9 14.0----29.98-------
2024-06-24 07:48 pm E 7.0 11.1----29.98- 85.3 88.0----
2024-06-24 07:42 pm E 7.0 11.1----29.98- 85.1 88.0----
2024-06-24 07:36 pm E 5.1 8.0----29.98- 85.3 88.0----
2024-06-24 07:30 pm E 5.1 8.9----29.98- 85.1 88.0----
2024-06-24 07:24 pmENE 6.0 8.9----29.98- 85.1 88.0----
2024-06-24 07:18 pmENE 7.0 9.9----29.98-- 88.0----
2024-06-24 07:12 pmENE 7.0 9.9----29.98-- 88.0----
2024-06-24 07:06 pmENE 8.0 9.9----29.98-- 88.0----
2024-06-24 07:00 pm E 6.0 9.9----29.98-------
2024-06-24 06:54 pm E 6.0 9.9----29.98-------
2024-06-24 06:48 pmENE 6.0 8.9----29.98- 85.8 88.0----
2024-06-24 06:42 pm E 6.0 9.9----29.97- 86.0 88.0----
2024-06-24 06:36 pmENE 8.0 9.9----29.97- 85.8 88.0----
2024-06-24 06:30 pmENE 5.1 9.9----29.97- 86.0 88.0----
2024-06-24 06:24 pm E 6.0 9.9----29.97- 86.0 88.0----
2024-06-24 06:18 pm E 7.0 13.0----29.96- 86.0 88.0----
2024-06-24 06:12 pm E 12.0 15.0----29.96- 85.8 88.0----
2024-06-24 06:06 pm E 11.1 13.0----29.96- 85.8 88.0----
2024-06-24 06:00 pm E 8.9 13.0----29.96- 85.8 88.0----
2024-06-24 05:54 pm E 9.9 15.0----29.95- 85.8 88.0----
2024-06-24 05:48 pm E 9.9 13.0----29.95- 85.8 88.0----
2024-06-24 05:42 pm E 9.9 13.0----29.95- 85.8 88.0----
2024-06-24 05:36 pm E 8.9 14.0----29.95- 86.0 88.0----
2024-06-24 05:30 pmESE 12.0 15.9----29.94- 86.4 88.0----
2024-06-24 05:24 pmESE 12.0 15.0----29.94- 86.4 88.0----
2024-06-24 05:18 pmESE 12.0 14.0----29.94- 86.5 88.0----
2024-06-24 05:12 pmESE 11.1 14.0----29.94- 86.7 88.0----
2024-06-24 05:06 pmESE 12.0 15.0----29.94- 86.7 88.0----
2024-06-24 05:00 pmESE 12.0 15.0----29.94-0.04 86.5 88.0----
2024-06-24 04:54 pm E 12.0 15.0----29.94- 86.0 88.0----
2024-06-24 04:48 pm E 13.0 15.0----29.94- 86.0 88.0----
2024-06-24 04:42 pmESE 12.0 15.0----29.94- 86.7 88.0----
2024-06-24 04:36 pmESE 11.1 15.0----29.94- 86.5 88.0----
2024-06-24 04:30 pm E 12.0 15.0----29.94- 86.2 88.0----
2024-06-24 04:24 pmESE 12.0 15.0----29.94- 87.1 88.0----
2024-06-24 04:18 pmESE 9.9 15.9----29.94- 87.1 88.0----
2024-06-24 04:12 pmESE 12.0 15.0----29.94- 87.1 88.0----
2024-06-24 04:06 pmESE 12.0 15.9----29.94- 87.1 88.0----
2024-06-24 04:00 pmESE 13.0 15.9------ 86.5 88.0----
2024-06-24 03:54 pmESE 14.0 17.1------ 86.7 87.8----
2024-06-24 03:48 pmESE 11.1 18.1----29.94-- 87.8----
2024-06-24 03:42 pmESE 14.0 19.0----29.94-- 87.8----
2024-06-24 03:36 pmESE 14.0 19.0----29.95-- 87.8----
2024-06-24 03:30 pmESE 15.0 18.1----29.95- 87.1 87.8----
2024-06-24 03:24 pmESE 14.0 18.1----29.95- 87.3 87.8----
2024-06-24 03:18 pmESE 9.9 18.1----29.95- 87.6 87.8----
2024-06-24 03:12 pmESE 15.0 18.1----29.95- 86.0 87.8----
2024-06-24 03:06 pmESE 14.0 18.1----29.95- 86.4 87.8----
2024-06-24 03:00 pmESE 13.0 17.1------ 87.3 87.8----
2024-06-24 02:54 pmESE 12.0 15.9------ 87.1 87.8----
2024-06-24 02:48 pmESE 14.0 17.1----29.96- 86.5 87.8----
2024-06-24 02:42 pmESE 13.0 17.1----29.96- 86.7 87.8----
2024-06-24 02:36 pmESE 13.0 18.1----29.96- 87.6 87.8----
2024-06-24 02:30 pmESE 11.1 15.9----29.96- 87.6 87.6----
2024-06-24 02:24 pmESE 8.9 15.9----29.96- 86.9 87.6----
2024-06-24 02:18 pmESE 12.0 15.0----29.96- 86.4 87.6----
2024-06-24 02:12 pmESE 5.1 14.0----29.97- 89.1 87.6----
2024-06-24 02:06 pmESE 12.0 15.0----29.97- 88.7 87.6----
2024-06-24 02:00 pmESE 11.1 15.9----29.98-0.02 88.3 87.6----
2024-06-24 01:54 pmESE 12.0 15.0----29.97- 88.3 87.6----
2024-06-24 01:48 pmESE 14.0 17.1----29.98- 88.3 87.6----
2024-06-24 01:42 pmESE 12.0 15.0----29.98- 88.3 87.6----
2024-06-24 01:36 pmESE 12.0 15.0----29.98- 88.5 87.4----
2024-06-24 01:30 pmESE 13.0 15.0----29.98- 88.0 87.4----
2024-06-24 01:24 pmESE 12.0 17.1----29.98- 88.3 87.4----
2024-06-24 01:18 pmESE 12.0 15.9----29.98- 88.5 87.4----
2024-06-24 01:12 pmESE 14.0 17.1----29.98- 87.6 87.3----
2024-06-24 01:06 pmESE 12.0 14.0----29.99- 87.4 87.3----
2024-06-24 01:00 pmESE 12.0 14.0----29.99+0.00 87.3 87.3----
2024-06-24 12:54 pm E 12.0 15.0----29.99- 86.9 87.3----
2024-06-24 12:48 pmESE 14.0 15.0----29.99- 86.7 87.3----
2024-06-24 12:42 pmESE 12.0 15.9----29.99- 87.6 87.3----
2024-06-24 12:36 pm E 14.0 17.1----29.99- 86.5 87.3----
2024-06-24 12:30 pm E 14.0 17.1----29.99- 86.5 87.3----
2024-06-24 12:24 pmESE 14.0 15.0----29.99- 87.4 87.3----
2024-06-24 12:18 pmESE 12.0 15.0----29.99- 87.6 87.3----
2024-06-24 12:12 pmESE 9.9 14.0----29.99- 88.9 87.3----
2024-06-24 12:06 pmESE 8.9 13.0----30.00- 89.2 87.3----
2024-06-24 12:00 pmESE 7.0 14.0----30.00+0.02 89.4 87.3----
2024-06-24 11:54 am SE 6.0 13.0----30.00- 89.1 87.3----
2024-06-24 11:48 amESE 8.9 14.0----30.00- 89.1 87.3----
2024-06-24 11:42 amESE 8.0 14.0----30.00- 88.9 87.3----
2024-06-24 11:36 am SE 5.1 14.0----30.00- 89.1 87.3----
2024-06-24 11:30 amESE 9.9 14.0----30.00- 89.1 87.3----
2024-06-24 11:24 amESE 8.9 14.0----30.00- 88.9 87.3----
2024-06-24 11:18 am SE 6.0 11.1----30.01- 88.7 87.1----
2024-06-24 11:12 am SE 7.0 12.0----30.01- 88.7 87.1----
2024-06-24 11:06 amESE 8.9 15.9----30.00- 88.0 87.1----
2024-06-24 11:00 amESE 9.9 14.0----30.00+0.02 88.0 87.1----
2024-06-24 10:54 amESE 7.0 15.0----30.00- 88.5 86.9----
2024-06-24 10:48 amESE 8.0 14.0----30.00- 88.5 86.9----
2024-06-24 10:42 amESE 8.0 13.0----29.99- 88.5 86.7----
2024-06-24 10:36 am SE 7.0 14.0----29.99- 88.3 86.7----
2024-06-24 10:30 amESE 8.9 14.0----29.99- 88.0 86.7----
2024-06-24 10:24 amESE 8.9 15.0----29.99- 88.0 86.7----
2024-06-24 10:18 amESE 12.0 17.1----29.99- 87.3 86.7----
2024-06-24 10:12 amESE 9.9 17.1----29.99- 87.8 86.9----
2024-06-24 10:06 amESE 12.0 17.1----29.99- 87.4 86.9----
2024-06-24 10:00 amESE 13.0 17.1----29.99+0.04 87.3 86.9----
2024-06-24 09:54 amESE 11.1 15.0----29.99- 87.3 86.9----